Tracking 25612 objects as of 19-May-2022
HD Live streaming from Space Station
objects crossing your sky now

COSMOS 2251 DEB

Track COSMOS 2251 DEB now!
10-day predictions


NORAD ID: 40225
Int'l Code: 1993-036BVE
Perigee: 688.0 km
Apogee: 707.1 km
Inclination: 74.0 °
Period: 98.6 minutes
Semi major axis: 7068 km
RCS: Unknown
Launch date: June 16, 1993
Source: Commonwealth of Independent States (former USSR) (CIS)
Launch site: PLESETSK MISSILE AND SPACE COMPLEX (PKMTR)

Note: This is SATELLITE DEBRIS
aabbcc
Your satellite tracking list
Your tracking list is empty




NASA's NSSDC Master Catalog

Two Line Element Set (TLE):
1 40225U 93036BVE 22136.68014993  .00009137  00000-0  18695-2 0  9999
2 40225  74.0456 291.3841 0013554 349.3789  25.5616 14.60859617406596
Source of the keplerian elements: AFSPC